Вернуться в каталог

STARLINK-5903

АктивенСвязьVLEO
NORAD 55996·PAYLOAD·🇺🇸 United States

Запущен Mar 24, 2023 с Cape Canaveral Space Force Station

Loading…

Ближайшие Пролёты (ближайшие 24 часа)

TLE

СвежийSource: CelesTrak SupGP

Эпоха: Sep 15, 2026, 02:19 UTC

1 55996C 23042L   26258.09701389 -.00037280  00000+0 -13501-2 0  2586
2 55996  43.0026  69.6936 0001424 270.2147 308.2109 15.27600401    14

Отслеживайте STARLINK-5903 в реальном времени с AllMySat

Download on the App Store